GSAT0203 (PRN E26)

Last updated on Nov. 21, 2019, 4:16 a.m. UTC

1 40544U 15017A   19323.73526698 -.00000067  00000-0  00000-0 0  9999
2 40544  56.2813  47.2528 0004745 237.0369 122.9440  1.70475115 28263
UTC
Height (km)
Latitude
Longitude
Inclination
Orbital Period
UTC large
Height (km)
Speed (km/s)
/
Latitude / Longitude
Inclination (degrees)
Orbital Period (minutes)
Azimuth
Elevation
Range (km)
Doppler Factor
iOS Compass Heading
iOS Angle

Next 30 passes for location: Hong Kong

Rise time Rise Azimuth (degrees) Set time Set Azimuth (degrees) Duration Max altitude (degrees)

No matching passes for this satellites